Location: Altavilla Irpina
(41.0000°N, 14.7833°E)
Time: 06:07:00
(UTC+00:00)

DELTA 2 DEB (DPAF) - Pass Details

Date: 19 May 2025
Orbit: 538 x 548 km, 98.4° (Epoch: 22 June)

Event Time Altitude Azimuth Distance (km) Brightness Sun altitude
Rises 21:07:22 0° 11° (NNE) 2,724 8.1 -23.9°
Reaches altitude 10° 21:09:30 10° 10° (N) 1,824 7.1 -24.1°
Enters shadow 21:13:03 69° 343° (NNW) 588 4.0 -24.4°
